Tracking 21611 objects as of 22-Oct-2020
HD Live streaming from Space Station
objects crossing your sky now

COSMOS 2219

Track COSMOS 2219 now!
10-day predictions
COSMOS 2219 is classified as:


NORAD ID: 22219
Int'l Code: 1992-076A
Perigee: 839.8 km
Apogee: 868.3 km
Inclination: 71.1 °
Period: 101.9 minutes
Semi major axis: 7225 km
RCS: 7.421 m2 (large)
Launch date: November 17, 1992
Source: Commonwealth of Independent States (former USSR) (CIS)
Launch site: TYURATAM MISSILE AND SPACE COMPLEX (TTMTR)
aabbcc
Your satellite tracking list
Your tracking list is empty




NASA's NSSDC Master Catalog

Two Line Element Set (TLE):
1 22219U 92076A   20295.09954346 +.00000150 +00000-0 +10445-3 0  9991
2 22219 071.0609 165.2394 0019747 318.3307 041.6309 14.13655400440576
Source of the keplerian elements: AFSPC